VTK503 VTSP-VVCR

Flight info

Callsign VTK503
Flight time 1h 43m
Altitude 41000
Route EMRIT1A EMRIT R588 KOS R334 NUMDI/K0896F410 R334 PQU W8 TUNPO W17 TSH W2 AC W15 BANKE BANKE1A
Aircraft A359/H-SDE2E3GHIJ3J4J5LM1ORWXY/LB1D1

Departure

Time 2026-04-18 04:40
Airport Phuket International Airport (VTSP)

Arrival

Time 2026-04-18 06:23
Airport Cam Ranh International Airport / Cam Ranh Air Base (VVCR)
Time Latitude Longitude Altitude Speed Heading
2026-04-18 04:17 8.10905 98.30546 34 ft 0 kts 104°
2026-04-18 04:31 8.10906 98.30542 34 ft 2 kts 104°
2026-04-18 04:31 8.10910 98.30526 32 ft 2 kts 103°
2026-04-18 04:31 8.10913 98.30510 31 ft 2 kts 101°
2026-04-18 04:32 8.10916 98.30493 30 ft 2 kts 97°
2026-04-18 04:32 8.10917 98.30477 30 ft 2 kts 87°
2026-04-18 04:32 8.10913 98.30461 30 ft 2 kts 39°
2026-04-18 04:32 8.10904 98.30456 32 ft 0 kts 15°
2026-04-18 04:35 8.10910 98.30457 31 ft 7 kts 16°
2026-04-18 04:35 8.10974 98.30474 33 ft 9 kts 13°
2026-04-18 04:35 8.11030 98.30451 33 ft 9 kts 300°
2026-04-18 04:35 8.11042 98.30381 33 ft 9 kts 287°
2026-04-18 04:36 8.11065 98.30358 33 ft 0 kts 334°
2026-04-18 04:37 8.11099 98.30348 33 ft 8 kts 345°
2026-04-18 04:37 8.11168 98.30343 33 ft 12 kts 358°
2026-04-18 04:38 8.11197 98.30380 33 ft 8 kts 73°
2026-04-18 04:38 8.11203 98.30417 33 ft 0 kts 84°
2026-04-18 04:39 8.11203 98.30420 33 ft 1 kts 84°
2026-04-18 04:39 8.11212 98.30515 34 ft 52 kts 85°
2026-04-18 04:39 8.11283 98.31240 39 ft 152 kts 84°
2026-04-18 04:39 8.11389 98.32488 623 ft 194 kts 87°
2026-04-18 04:40 8.11499 98.33915 1516 ft 211 kts 86°
2026-04-18 04:40 8.11641 98.35403 2372 ft 215 kts 87°
2026-04-18 04:40 8.11761 98.36960 2755 ft 232 kts 87°
2026-04-18 04:40 8.11901 98.38652 3064 ft 251 kts 85°
2026-04-18 04:41 8.12083 98.40447 3582 ft 260 kts 84°
2026-04-18 04:41 8.12268 98.42271 4239 ft 263 kts 85°
2026-04-18 04:41 8.12451 98.44119 4907 ft 266 kts 85°
2026-04-18 04:41 8.12631 98.45981 5550 ft 268 kts 85°
2026-04-18 04:42 8.12810 98.47866 6200 ft 270 kts 85°
2026-04-18 04:42 8.12987 98.49755 6799 ft 273 kts 85°
2026-04-18 04:42 8.13167 98.51672 7384 ft 275 kts 85°
2026-04-18 04:42 8.13348 98.53603 7974 ft 278 kts 85°
2026-04-18 04:43 8.13530 98.55554 8560 ft 281 kts 85°
2026-04-18 04:43 8.13714 98.57520 9163 ft 283 kts 85°
2026-04-18 04:43 8.13900 98.59507 9777 ft 285 kts 85°
2026-04-18 04:43 8.13963 98.61523 10229 ft 293 kts 93°
2026-04-18 04:44 8.13708 98.63613 10469 ft 307 kts 98°
2026-04-18 04:44 8.13335 98.65781 10693 ft 321 kts 99°
2026-04-18 04:44 8.12929 98.68043 10930 ft 333 kts 99°
2026-04-18 04:44 8.12508 98.70382 11137 ft 345 kts 100°
2026-04-18 04:45 8.12069 98.72807 11344 ft 356 kts 100°
2026-04-18 04:45 8.11630 98.75251 11670 ft 361 kts 100°
2026-04-18 04:45 8.11175 98.77787 12078 ft 364 kts 100°
2026-04-18 04:45 8.10743 98.80314 12467 ft 367 kts 98°
2026-04-18 04:46 8.10520 98.82853 12868 ft 370 kts 93°
2026-04-18 04:46 8.10459 98.85455 13280 ft 372 kts 90°
2026-04-18 04:46 8.10489 98.88076 13677 ft 375 kts 89°
2026-04-18 04:46 8.10559 98.90716 14032 ft 377 kts 88°
2026-04-18 04:47 8.10637 98.93371 14393 ft 379 kts 88°
2026-04-18 04:47 8.10704 98.96039 14744 ft 381 kts 89°
2026-04-18 04:47 8.10757 98.98719 15092 ft 383 kts 89°
2026-04-18 04:47 8.10762 99.01417 15433 ft 386 kts 90°
2026-04-18 04:48 8.10714 99.04132 15778 ft 388 kts 91°
2026-04-18 04:48 8.10640 99.06856 16125 ft 390 kts 91°
2026-04-18 04:48 8.10559 99.09594 16471 ft 392 kts 91°
2026-04-18 04:48 8.10480 99.12349 16807 ft 394 kts 91°
2026-04-18 04:49 8.10408 99.15128 17146 ft 396 kts 91°
2026-04-18 04:49 8.10342 99.17908 17483 ft 398 kts 91°
2026-04-18 04:49 8.10280 99.20713 17814 ft 400 kts 91°
2026-04-18 04:49 8.10221 99.23531 18135 ft 403 kts 91°
2026-04-18 04:50 8.10163 99.26361 18416 ft 405 kts 91°
2026-04-18 04:50 8.10104 99.29212 18685 ft 407 kts 91°
2026-04-18 04:50 8.10044 99.32078 18956 ft 409 kts 91°
2026-04-18 04:50 8.09985 99.34943 19226 ft 411 kts 91°
2026-04-18 04:51 8.09926 99.37838 19509 ft 413 kts 91°
2026-04-18 04:51 8.09865 99.40742 19788 ft 415 kts 91°
2026-04-18 04:51 8.09801 99.43664 20065 ft 417 kts 91°
2026-04-18 04:51 8.09738 99.46595 20334 ft 419 kts 92°
2026-04-18 04:52 8.09675 99.49540 20617 ft 421 kts 92°
2026-04-18 04:52 8.09611 99.52496 20869 ft 423 kts 92°
2026-04-18 04:52 8.09546 99.55468 21142 ft 425 kts 92°
2026-04-18 04:52 8.09481 99.58458 21407 ft 427 kts 92°
2026-04-18 04:53 8.09417 99.61454 21666 ft 429 kts 92°
2026-04-18 04:53 8.09353 99.64434 21912 ft 431 kts 92°
2026-04-18 04:53 8.09288 99.67461 22170 ft 433 kts 92°
2026-04-18 04:53 8.09221 99.70503 22425 ft 434 kts 92°
2026-04-18 04:54 8.09153 99.73557 22687 ft 436 kts 92°
2026-04-18 04:54 8.09084 99.76621 22931 ft 438 kts 92°
2026-04-18 04:54 8.09014 99.79700 23169 ft 440 kts 92°
2026-04-18 04:54 8.08946 99.82801 23420 ft 442 kts 92°
2026-04-18 04:55 8.08877 99.85912 23623 ft 444 kts 92°
2026-04-18 04:55 8.08808 99.89032 23839 ft 445 kts 92°
2026-04-18 04:55 8.08740 99.92162 24046 ft 447 kts 92°
2026-04-18 04:56 8.08595 99.98451 24462 ft 451 kts 92°
2026-04-18 04:56 8.08522 100.01623 24663 ft 453 kts 92°
2026-04-18 04:56 8.08451 100.04810 24875 ft 454 kts 92°
2026-04-18 04:56 8.08378 100.07997 25079 ft 456 kts 92°
2026-04-18 04:57 8.08304 100.11207 25289 ft 458 kts 92°
2026-04-18 04:57 8.08229 100.14425 25507 ft 460 kts 92°
2026-04-18 04:57 8.08155 100.17655 25736 ft 461 kts 92°
2026-04-18 04:57 8.08080 100.20898 25944 ft 463 kts 92°
2026-04-18 04:58 8.08005 100.24154 26155 ft 465 kts 92°
2026-04-18 04:58 8.07928 100.27422 26379 ft 467 kts 92°
2026-04-18 04:58 8.07851 100.30706 26606 ft 469 kts 92°
2026-04-18 04:58 8.07773 100.34005 26827 ft 471 kts 92°
2026-04-18 04:59 8.07810 100.37307 27045 ft 473 kts 87°
2026-04-18 04:59 8.08219 100.40611 27262 ft 475 kts 79°
2026-04-18 04:59 8.09072 100.43837 27472 ft 478 kts 71°
2026-04-18 04:59 8.10377 100.46877 27692 ft 480 kts 62°
2026-04-18 05:00 8.12173 100.49766 27911 ft 481 kts 54°
2026-04-18 05:00 8.14185 100.52475 28142 ft 483 kts 52°
2026-04-18 05:00 8.16281 100.55133 28372 ft 485 kts 50°
2026-04-18 05:00 8.17696 100.56882 28523 ft 486 kts 50°
2026-04-18 05:01 8.20574 100.60415 28826 ft 489 kts 50°
2026-04-18 05:01 8.22007 100.62181 28967 ft 490 kts 50°
2026-04-18 05:01 8.24159 100.64851 29182 ft 492 kts 50°
2026-04-18 05:01 8.26315 100.67549 29405 ft 494 kts 50°
2026-04-18 05:02 8.28470 100.70262 29638 ft 496 kts 51°
2026-04-18 05:02 8.30628 100.72988 29875 ft 498 kts 51°
2026-04-18 05:02 8.32790 100.75724 30108 ft 500 kts 51°
2026-04-18 05:02 8.34959 100.78473 30319 ft 501 kts 51°
2026-04-18 05:03 8.37134 100.81228 30541 ft 503 kts 51°
2026-04-18 05:03 8.39315 100.83990 30775 ft 504 kts 50°
2026-04-18 05:03 8.41504 100.86762 31006 ft 505 kts 50°
2026-04-18 05:03 8.43701 100.89544 31236 ft 507 kts 50°
2026-04-18 05:04 8.45901 100.92330 31467 ft 508 kts 50°
2026-04-18 05:04 8.48075 100.95090 31673 ft 509 kts 50°
2026-04-18 05:04 8.50286 100.97893 31887 ft 511 kts 50°
2026-04-18 05:04 8.52504 101.00702 32095 ft 512 kts 50°
2026-04-18 05:05 8.54726 101.03517 32279 ft 513 kts 50°
2026-04-18 05:05 8.56957 101.06344 32493 ft 515 kts 50°
2026-04-18 05:05 8.59191 101.09181 32682 ft 516 kts 51°
2026-04-18 05:05 8.61429 101.12023 32864 ft 518 kts 50°
2026-04-18 05:06 8.63673 101.14869 33050 ft 519 kts 50°
2026-04-18 05:06 8.65919 101.17719 33314 ft 518 kts 50°
2026-04-18 05:06 8.68168 101.20573 33629 ft 517 kts 50°
2026-04-18 05:06 8.70403 101.23410 33927 ft 516 kts 50°
2026-04-18 05:07 8.72641 101.26252 34206 ft 516 kts 51°
2026-04-18 05:07 8.74873 101.29088 34469 ft 516 kts 51°
2026-04-18 05:07 8.77103 101.31922 34721 ft 516 kts 51°
2026-04-18 05:07 8.79331 101.34754 35005 ft 515 kts 51°
2026-04-18 05:08 8.81563 101.37592 35298 ft 514 kts 51°
2026-04-18 05:08 8.83787 101.40420 35600 ft 514 kts 51°
2026-04-18 05:08 8.86007 101.43244 35899 ft 513 kts 51°
2026-04-18 05:08 8.88228 101.46070 36200 ft 513 kts 51°
2026-04-18 05:09 8.90445 101.48891 36510 ft 512 kts 51°
2026-04-18 05:09 8.92659 101.51713 36812 ft 512 kts 51°
2026-04-18 05:09 8.94871 101.54533 37129 ft 511 kts 51°
2026-04-18 05:09 8.97080 101.57347 37435 ft 511 kts 51°
2026-04-18 05:10 8.99286 101.60161 37752 ft 510 kts 51°
2026-04-18 05:10 9.01495 101.62976 38073 ft 509 kts 51°
2026-04-18 05:10 9.03694 101.65777 38396 ft 509 kts 51°
2026-04-18 05:10 9.05894 101.68581 38683 ft 508 kts 51°
2026-04-18 05:11 9.08090 101.71378 38935 ft 508 kts 51°
2026-04-18 05:11 9.10280 101.74171 39196 ft 507 kts 51°
2026-04-18 05:11 9.12473 101.76969 39466 ft 506 kts 51°
2026-04-18 05:11 9.14655 101.79754 39728 ft 505 kts 51°
2026-04-18 05:12 9.16831 101.82532 39986 ft 504 kts 51°
2026-04-18 05:12 9.19010 101.85314 40244 ft 503 kts 51°
2026-04-18 05:12 9.21181 101.88087 40477 ft 502 kts 50°
2026-04-18 05:12 9.23348 101.90856 40708 ft 502 kts 50°
2026-04-18 05:13 9.25515 101.93625 40882 ft 502 kts 50°
2026-04-18 05:13 9.27650 101.96354 40897 ft 501 kts 50°
2026-04-18 05:13 9.31967 102.01877 40900 ft 500 kts 50°
2026-04-18 05:14 9.36293 102.07401 40910 ft 500 kts 50°
2026-04-18 05:14 9.40618 102.12921 40909 ft 500 kts 50°
2026-04-18 05:15 9.44940 102.18443 40907 ft 500 kts 50°
2026-04-18 05:15 9.49258 102.23966 40913 ft 500 kts 50°
2026-04-18 05:16 9.53575 102.29490 40900 ft 500 kts 50°
2026-04-18 05:16 9.57889 102.35013 40899 ft 500 kts 50°
2026-04-18 05:17 9.62209 102.40527 40899 ft 500 kts 50°
2026-04-18 05:17 9.66554 102.46043 40911 ft 500 kts 50°
2026-04-18 05:18 9.70890 102.51551 40895 ft 500 kts 50°
2026-04-18 05:18 9.75223 102.57066 40897 ft 500 kts 50°
2026-04-18 05:19 9.79554 102.62582 40898 ft 500 kts 50°
2026-04-18 05:19 9.83884 102.68105 40906 ft 500 kts 50°
2026-04-18 05:20 9.88217 102.73631 40904 ft 500 kts 50°
2026-04-18 05:20 9.92552 102.79159 40897 ft 500 kts 50°
2026-04-18 05:21 9.96881 102.84685 40897 ft 500 kts 50°
2026-04-18 05:21 10.01212 102.90216 40898 ft 500 kts 50°
2026-04-18 05:22 10.05540 102.95751 40896 ft 501 kts 50°
2026-04-18 05:22 10.09869 103.01286 40894 ft 501 kts 50°
2026-04-18 05:23 10.14203 103.06820 40895 ft 501 kts 50°
2026-04-18 05:23 10.18532 103.12355 40894 ft 501 kts 50°
2026-04-18 05:24 10.22865 103.17899 40895 ft 501 kts 50°
2026-04-18 05:24 10.27192 103.23439 40890 ft 501 kts 50°
2026-04-18 05:25 10.31524 103.28988 40889 ft 501 kts 50°
2026-04-18 05:25 10.35853 103.34536 40891 ft 502 kts 50°
2026-04-18 05:26 10.40160 103.40059 40887 ft 502 kts 50°
2026-04-18 05:26 10.44490 103.45613 40887 ft 502 kts 50°
2026-04-18 05:27 10.48625 103.51319 40883 ft 503 kts 58°
2026-04-18 05:27 10.51204 103.57909 40884 ft 504 kts 78°
2026-04-18 05:28 10.51456 103.64979 40886 ft 503 kts 99°
2026-04-18 05:28 10.49306 103.71695 40884 ft 500 kts 119°
2026-04-18 05:29 10.45103 103.77254 40889 ft 496 kts 137°
2026-04-18 05:29 10.40072 103.82053 40884 ft 496 kts 139°
2026-04-18 05:30 10.34952 103.86762 40884 ft 497 kts 139°
2026-04-18 05:30 10.29850 103.91488 40886 ft 497 kts 139°
2026-04-18 05:31 10.24762 103.96244 40885 ft 497 kts 139°
2026-04-18 05:31 10.19836 104.01169 40880 ft 499 kts 131°
2026-04-18 05:32 10.16248 104.07184 40882 ft 502 kts 112°
2026-04-18 05:32 10.14460 104.14033 40883 ft 503 kts 103°
2026-04-18 05:33 10.13167 104.21021 40884 ft 504 kts 101°
2026-04-18 05:33 10.11929 104.28020 40882 ft 504 kts 101°
2026-04-18 05:34 10.10652 104.35019 40888 ft 504 kts 102°
2026-04-18 05:34 10.09352 104.42006 40886 ft 504 kts 102°
2026-04-18 05:35 10.08037 104.48995 40887 ft 504 kts 102°
2026-04-18 05:35 10.06998 104.56029 40883 ft 505 kts 92°
2026-04-18 05:36 10.07793 104.63031 40882 ft 505 kts 73°
2026-04-18 05:36 10.10075 104.69828 40879 ft 506 kts 69°
2026-04-18 05:37 10.12594 104.76495 40876 ft 506 kts 69°
2026-04-18 05:37 10.15120 104.83158 40874 ft 506 kts 69°
2026-04-18 05:38 10.17616 104.89846 40869 ft 506 kts 69°
2026-04-18 05:38 10.20075 104.96496 40871 ft 508 kts 69°
2026-04-18 05:39 10.22557 105.03222 40871 ft 509 kts 69°
2026-04-18 05:39 10.25037 105.09945 40868 ft 509 kts 69°
2026-04-18 05:40 10.27519 105.16676 40867 ft 509 kts 69°
2026-04-18 05:40 10.30004 105.23417 40868 ft 509 kts 69°
2026-04-18 05:41 10.32486 105.30155 40866 ft 509 kts 69°
2026-04-18 05:41 10.34966 105.36892 40872 ft 510 kts 69°
2026-04-18 05:42 10.37444 105.43630 40868 ft 510 kts 69°
2026-04-18 05:42 10.39923 105.50377 40875 ft 510 kts 69°
2026-04-18 05:43 10.42401 105.57123 40874 ft 509 kts 69°
2026-04-18 05:43 10.44876 105.63867 40871 ft 510 kts 69°
2026-04-18 05:44 10.47351 105.70613 40873 ft 510 kts 69°
2026-04-18 05:44 10.49825 105.77363 40874 ft 510 kts 69°
2026-04-18 05:45 10.52298 105.84116 40875 ft 510 kts 69°
2026-04-18 05:45 10.54753 105.90825 40876 ft 510 kts 69°
2026-04-18 05:46 10.57222 105.97574 40876 ft 510 kts 69°
2026-04-18 05:46 10.59684 106.04326 40876 ft 510 kts 69°
2026-04-18 05:47 10.62147 106.11076 40875 ft 510 kts 69°
2026-04-18 05:47 10.64613 106.17835 40876 ft 510 kts 69°
2026-04-18 05:48 10.67077 106.24596 40875 ft 510 kts 69°
2026-04-18 05:48 10.69535 106.31348 40875 ft 510 kts 69°
2026-04-18 05:49 10.71993 106.38108 40882 ft 510 kts 69°
2026-04-18 05:49 10.74035 106.43726 40880 ft 509 kts 69°
2026-04-18 05:50 10.76490 106.50486 40884 ft 509 kts 69°
2026-04-18 05:50 10.78943 106.57245 40884 ft 510 kts 69°
2026-04-18 05:51 10.81369 106.64017 40882 ft 510 kts 71°
2026-04-18 05:51 10.83190 106.70975 40881 ft 510 kts 75°
2026-04-18 05:52 10.84828 106.77995 40883 ft 510 kts 76°
2026-04-18 05:52 10.86408 106.85024 40884 ft 510 kts 76°
2026-04-18 05:53 10.87979 106.92059 40886 ft 510 kts 76°
2026-04-18 05:53 10.89552 106.99082 40882 ft 509 kts 76°
2026-04-18 05:54 10.91128 107.06108 40878 ft 509 kts 76°
2026-04-18 05:54 10.92702 107.13129 40882 ft 509 kts 76°
2026-04-18 05:55 10.95018 107.19911 40882 ft 507 kts 61°
2026-04-18 05:55 10.98783 107.25964 40882 ft 506 kts 54°
2026-04-18 05:56 11.02867 107.31805 40880 ft 506 kts 53°
2026-04-18 05:56 11.06998 107.37605 40883 ft 506 kts 53°
2026-04-18 05:57 11.13160 107.46342 40884 ft 506 kts 53°
2026-04-18 05:58 11.17247 107.52175 40885 ft 506 kts 54°
2026-04-18 05:58 11.21310 107.57982 40890 ft 506 kts 54°
2026-04-18 05:59 11.25416 107.63858 40893 ft 506 kts 54°
2026-04-18 05:59 11.29502 107.69703 40900 ft 506 kts 54°
2026-04-18 06:00 11.33583 107.75540 40840 ft 503 kts 54°
2026-04-18 06:00 11.35570 107.78386 40191 ft 494 kts 54°
2026-04-18 06:00 11.37581 107.81269 38953 ft 493 kts 53°
2026-04-18 06:00 11.39553 107.84095 37376 ft 498 kts 53°
2026-04-18 06:01 11.41569 107.86983 35843 ft 500 kts 53°
2026-04-18 06:01 11.43589 107.89875 34361 ft 502 kts 53°
2026-04-18 06:01 11.45603 107.92755 33334 ft 493 kts 52°
2026-04-18 06:01 11.47583 107.95572 32493 ft 491 kts 52°
2026-04-18 06:02 11.49592 107.98425 31692 ft 499 kts 52°
2026-04-18 06:02 11.51626 108.01317 30938 ft 503 kts 53°
2026-04-18 06:02 11.53671 108.04235 29995 ft 508 kts 53°
2026-04-18 06:02 11.55732 108.07183 28865 ft 513 kts 53°
2026-04-18 06:03 11.57796 108.10144 28044 ft 511 kts 53°
2026-04-18 06:03 11.59843 108.13085 27321 ft 506 kts 53°
2026-04-18 06:03 11.61867 108.16000 26622 ft 502 kts 53°
2026-04-18 06:03 11.63877 108.18896 25922 ft 498 kts 53°
2026-04-18 06:04 11.65871 108.21766 25230 ft 494 kts 53°
2026-04-18 06:04 11.67846 108.24608 24539 ft 490 kts 54°
2026-04-18 06:04 11.69810 108.27433 23859 ft 486 kts 54°
2026-04-18 06:04 11.71758 108.30235 23125 ft 482 kts 54°
2026-04-18 06:05 11.73679 108.33014 22407 ft 477 kts 55°
2026-04-18 06:05 11.75269 108.35956 21743 ft 471 kts 66°
2026-04-18 06:05 11.76434 108.39060 21045 ft 466 kts 70°
2026-04-18 06:05 11.77428 108.42191 20369 ft 461 kts 72°
2026-04-18 06:06 11.78316 108.45311 19694 ft 456 kts 74°
2026-04-18 06:06 11.79150 108.48414 19021 ft 452 kts 75°
2026-04-18 06:06 11.79965 108.51493 18339 ft 447 kts 75°
2026-04-18 06:06 11.80777 108.54544 17577 ft 443 kts 75°
2026-04-18 06:07 11.81588 108.57551 16889 ft 437 kts 74°
2026-04-18 06:07 11.82388 108.60477 16220 ft 431 kts 74°
2026-04-18 06:07 11.83198 108.63406 15525 ft 425 kts 74°
2026-04-18 06:07 11.83998 108.66285 14862 ft 419 kts 73°
2026-04-18 06:08 11.84805 108.69130 14193 ft 414 kts 73°
2026-04-18 06:08 11.85601 108.71926 13767 ft 404 kts 73°
2026-04-18 06:08 11.86365 108.74617 13624 ft 385 kts 73°
2026-04-18 06:08 11.87088 108.77176 13485 ft 367 kts 73°
2026-04-18 06:09 11.87779 108.79631 13351 ft 351 kts 73°
2026-04-18 06:09 11.88441 108.81979 13215 ft 337 kts 73°
2026-04-18 06:09 11.89071 108.84230 13073 ft 323 kts 73°
2026-04-18 06:09 11.89653 108.86401 12921 ft 313 kts 76°
2026-04-18 06:10 11.90091 108.88552 12638 ft 307 kts 78°
2026-04-18 06:10 11.90471 108.90688 12341 ft 304 kts 78°
2026-04-18 06:10 11.90832 108.92807 12055 ft 303 kts 78°
2026-04-18 06:10 11.91198 108.94917 11755 ft 301 kts 78°
2026-04-18 06:11 11.91561 108.97019 11483 ft 300 kts 78°
2026-04-18 06:11 11.91915 108.99109 11196 ft 298 kts 79°
2026-04-18 06:11 11.92262 109.01194 10910 ft 297 kts 79°
2026-04-18 06:11 11.92609 109.03263 10627 ft 295 kts 78°
2026-04-18 06:12 11.92960 109.05324 10353 ft 293 kts 78°
2026-04-18 06:12 11.93310 109.07367 10086 ft 292 kts 79°
2026-04-18 06:12 11.93651 109.09403 9796 ft 290 kts 79°
2026-04-18 06:12 11.93990 109.11425 9502 ft 288 kts 79°
2026-04-18 06:13 11.94332 109.13438 9223 ft 287 kts 78°
2026-04-18 06:13 11.94680 109.15442 8961 ft 287 kts 78°
2026-04-18 06:13 11.95020 109.17441 8759 ft 286 kts 79°
2026-04-18 06:13 11.95358 109.19438 8489 ft 284 kts 79°
2026-04-18 06:14 11.95552 109.21445 8225 ft 286 kts 90°
2026-04-18 06:14 11.95151 109.23444 7969 ft 288 kts 105°
2026-04-18 06:14 11.94489 109.25375 7692 ft 288 kts 108°
2026-04-18 06:14 11.93794 109.27286 7428 ft 287 kts 108°
2026-04-18 06:15 11.93090 109.29191 7140 ft 287 kts 110°
2026-04-18 06:15 11.92079 109.30944 6869 ft 289 kts 130°
2026-04-18 06:15 11.90443 109.32123 6595 ft 291 kts 158°
2026-04-18 06:15 11.88461 109.32403 6326 ft 290 kts 186°
2026-04-18 06:16 11.86521 109.31901 6052 ft 288 kts 199°
2026-04-18 06:16 11.84645 109.31199 5767 ft 286 kts 201°
2026-04-18 06:16 11.82790 109.30467 5487 ft 284 kts 204°
2026-04-18 06:16 11.81131 109.29408 5222 ft 281 kts 225°
2026-04-18 06:17 11.80105 109.27763 5031 ft 275 kts 252°
2026-04-18 06:17 11.79929 109.25851 4723 ft 269 kts 280°
2026-04-18 06:17 11.80521 109.24089 4531 ft 257 kts 295°
2026-04-18 06:17 11.81286 109.22500 4323 ft 240 kts 297°
2026-04-18 06:18 11.82015 109.21034 4060 ft 223 kts 297°
2026-04-18 06:18 11.82689 109.19673 3862 ft 205 kts 297°
2026-04-18 06:18 11.83308 109.18441 3696 ft 185 kts 300°
2026-04-18 06:18 11.84109 109.17473 3380 ft 175 kts 323°
2026-04-18 06:19 11.85216 109.17033 3090 ft 172 kts 356°
2026-04-18 06:19 11.86357 109.17187 2974 ft 159 kts 17°
2026-04-18 06:19 11.87350 109.17561 2825 ft 146 kts 24°
2026-04-18 06:19 11.88270 109.17918 2552 ft 142 kts 23°
2026-04-18 06:20 11.89194 109.18236 2290 ft 138 kts 20°
2026-04-18 06:20 11.90088 109.18538 2200 ft 134 kts 22°
2026-04-18 06:20 11.90967 109.18848 2205 ft 134 kts 22°
2026-04-18 06:20 11.91852 109.19161 2169 ft 137 kts 22°
2026-04-18 06:21 11.92759 109.19477 1962 ft 137 kts 22°
2026-04-18 06:21 11.93654 109.19782 1742 ft 134 kts 22°
2026-04-18 06:21 11.94530 109.20089 1505 ft 133 kts 22°
2026-04-18 06:21 11.95408 109.20387 1269 ft 134 kts 22°
2026-04-18 06:22 11.96302 109.20672 1049 ft 136 kts 21°
2026-04-18 06:22 11.97210 109.20963 828 ft 137 kts 23°
2026-04-18 06:22 11.98105 109.21310 561 ft 138 kts 26°
2026-04-18 06:22 11.99014 109.21641 320 ft 139 kts 19°
2026-04-18 06:23 11.99916 109.21956 101 ft 135 kts 21°
2026-04-18 06:23 12.00800 109.22269 53 ft 108 kts 19°
2026-04-18 06:23 12.01123 109.22391 56 ft 11 kts 49°
2026-04-18 06:23 12.01141 109.22395 57 ft 1 kts 339°
2026-04-18 06:24 12.01143 109.22386 60 ft 2 kts 280°
2026-04-18 06:24 12.01130 109.22376 54 ft 5 kts 211°
2026-04-18 06:24 12.01120 109.22362 54 ft 3 kts 248°
2026-04-18 06:24 12.01136 109.22302 55 ft 20 kts 286°
2026-04-18 06:25 12.01202 109.22112 55 ft 29 kts 289°
2026-04-18 06:25 12.01238 109.22001 55 ft 0 kts 280°
2026-04-18 06:25 12.01242 109.21977 56 ft 11 kts 277°
2026-04-18 06:26 12.01244 109.21885 59 ft 15 kts 270°
2026-04-18 06:26 12.01180 109.21811 55 ft 16 kts 207°
2026-04-18 06:26 12.01092 109.21837 52 ft 12 kts 116°
2026-04-18 06:26 12.01082 109.21865 57 ft 0 kts 109°